| time (UTC) | temp F | wind direction | speed knots | gust knots | rain 1hr in | rain 24hr in | rain mn in | humidity % | barometer mb |
| 20260504211132 | 75 | 217 | 2.6 | 2.6 | 0.00 | 0.00 | 0.00 | 39 | 1015.6 |
| 20260504210630 | 75 | 253 | 0.9 | 1.7 | 0.00 | 0.00 | 0.00 | 39 | 1015.5 |
| 20260504210126 | 75 | 201 | 1.7 | 1.7 | 0.00 | 0.00 | 0.00 | 39 | 1015.6 |
| 20260504205624 | 75 | 217 | 4.3 | 6.1 | 0.00 | 0.00 | 0.00 | 38 | 1015.7 |
| 20260504205121 | 75 | 200 | 0.9 | 1.7 | 0.00 | 0.00 | 0.00 | 38 | 1015.7 |
| 20260504204620 | 75 | 216 | 1.7 | 1.7 | 0.00 | 0.00 | 0.00 | 39 | 1015.7 |
| 20260504204118 | 75 | 238 | 2.6 | 2.6 | 0.00 | 0.00 | 0.00 | 39 | 1015.8 |
| 20260504203616 | 75 | 186 | 0.9 | 1.7 | 0.00 | 0.00 | 0.00 | 38 | 1016.0 |
| 20260504203113 | 75 | 202 | 1.7 | 1.7 | 0.00 | 0.00 | 0.00 | 40 | 1015.7 |
| 20260504202608 | 75 | 167 | 3.5 | 4.3 | 0.00 | 0.00 | 0.00 | 39 | 1016.0 |
| 20260504202106 | 75 | 225 | 4.3 | 7.0 | 0.00 | 0.00 | 0.00 | 38 | 1016.0 |
| 20260504201602 | 75 | 209 | 1.7 | 1.7 | 0.00 | 0.00 | 0.00 | 39 | 1016.1 |
| 20260504201100 | 75 | 171 | 1.7 | 1.7 | 0.00 | 0.00 | 0.00 | 39 | 1016.2 |
| 20260504200556 | 75 | 199 | 2.6 | 5.2 | 0.00 | 0.00 | 0.00 | 42 | 1016.1 |
| 20260504200053 | 75 | 139 | 4.3 | 6.1 | 0.00 | 0.00 | 0.00 | 40 | 1016.3 |
| 20260504195549 | 75 | 189 | 0.9 | 1.7 | 0.00 | 0.00 | 0.00 | 41 | 1016.2 |
| 20260504195046 | 75 | 199 | 0.9 | 1.7 | 0.00 | 0.00 | 0.00 | 43 | 1016.2 |
| 20260504194543 | 75 | 225 | 0.9 | 0.9 | 0.00 | 0.00 | 0.00 | 43 | 1016.4 |
| 20260504194038 | 75 | 238 | 0.9 | 0.9 | 0.00 | 0.00 | 0.00 | 43 | 1016.7 |
| 20260504193535 | 75 | 223 | 1.7 | 2.6 | 0.00 | 0.00 | 0.00 | 42 | 1016.5 |
| 20260504193034 | 75 | 198 | 0.9 | 1.7 | 0.00 | 0.00 | 0.00 | 43 | 1016.6 |
| 20260504192532 | 75 | 243 | 0.0 | 0.0 | 0.00 | 0.00 | 0.00 | 41 | 1016.6 |
| 20260504192030 | 75 | 226 | 1.7 | 2.6 | 0.00 | 0.00 | 0.00 | 43 | 1016.6 |
| 20260504191527 | 74 | 253 | 0.9 | 1.7 | 0.00 | 0.00 | 0.00 | 42 | 1016.6 |
| 20260504191023 | 74 | 176 | 1.7 | 4.3 | 0.00 | 0.00 | 0.00 | 43 | 1016.8 |
| 20260504190519 | 75 | 140 | 4.3 | 6.1 | 0.00 | 0.00 | 0.00 | 40 | 1016.7 |
| 20260504190015 | 75 | 232 | 0.9 | 0.9 | 0.00 | 0.00 | 0.00 | 41 | 1016.9 |
| 20260504185513 | 75 | 247 | 0.0 | 0.9 | 0.00 | 0.00 | 0.00 | 43 | 1017.0 |
| 20260504185009 | 75 | 260 | 1.7 | 1.7 | 0.00 | 0.00 | 0.00 | 42 | 1016.9 |
| 20260504184505 | 75 | 227 | 1.7 | 1.7 | 0.00 | 0.00 | 0.00 | 42 | 1017.2 |
| 20260504184000 | 76 | 330 | 4.3 | 6.1 | 0.00 | 0.00 | 0.00 | 40 | 1017.2 |
| 20260504183458 | 75 | 252 | 0.0 | 0.0 | 0.00 | 0.00 | 0.00 | 43 | 1017.2 |
| 20260504182955 | 76 | 245 | 0.9 | 1.7 | 0.00 | 0.00 | 0.00 | 43 | 1017.2 |
| 20260504182452 | 76 | 247 | 0.0 | 0.0 | 0.00 | 0.00 | 0.00 | 44 | 1017.3 |
| 20260504181950 | 76 | 180 | 1.7 | 1.7 | 0.00 | 0.00 | 0.00 | 41 | 1017.2 |
| 20260504181446 | 76 | 257 | 0.0 | 0.0 | 0.00 | 0.00 | 0.00 | 42 | 1017.2 |
| 20260504180945 | 76 | 204 | 4.3 | 6.1 | 0.00 | 0.00 | 0.00 | 40 | 1017.4 |
| 20260504180444 | 75 | 230 | 0.9 | 0.9 | 0.00 | 0.00 | 0.00 | 43 | 1017.4 |
| 20260504175942 | 76 | 191 | 1.7 | 1.7 | 0.00 | 0.00 | 0.00 | 41 | 1017.5 |
| 20260504175438 | 75 | 251 | 1.7 | 2.6 | 0.00 | 0.00 | 0.00 | 44 | 1017.4 |
| 20260504174936 | 77 | 237 | 0.9 | 0.9 | 0.00 | 0.00 | 0.00 | 44 | 1017.4 |
| 20260504174433 | 76 | 165 | 2.6 | 2.6 | 0.00 | 0.00 | 0.00 | 40 | 1017.7 |
| 20260504173931 | 76 | 167 | 1.7 | 1.7 | 0.00 | 0.00 | 0.00 | 42 | 1017.5 |
| 20260504173427 | 74 | 253 | 0.9 | 0.9 | 0.00 | 0.00 | 0.00 | 41 | 1017.4 |
| 20260504172925 | 75 | 209 | 2.6 | 2.6 | 0.00 | 0.00 | 0.00 | 41 | 1017.3 |
| 20260504172420 | 75 | 201 | 0.0 | 0.9 | 0.00 | 0.00 | 0.00 | 44 | 1017.5 |
| 20260504171917 | 74 | 246 | 0.9 | 1.7 | 0.00 | 0.00 | 0.00 | 43 | 1017.9 |
| 20260504171414 | 73 | 228 | 0.9 | 0.9 | 0.00 | 0.00 | 0.00 | 44 | 1017.9 |
| 20260504170911 | 75 | 229 | 0.9 | 1.7 | 0.00 | 0.00 | 0.00 | 42 | 1017.8 |
| 20260504170408 | 75 | 207 | 0.9 | 0.9 | 0.00 | 0.00 | 0.00 | 43 | 1017.7 |
| 20260504160326 | 73 | 209 | 0.9 | 0.9 | 0.00 | 0.00 | 0.00 | 42 | 1018.7 |
| 20260504150751 | 70 | 337 | 0.9 | 1.7 | 0.00 | 0.00 | 0.00 | 44 | 1019.6 |
| 20260504150248 | 71 | 269 | 0.0 | 0.0 | 0.00 | 0.00 | 0.00 | 46 | 1019.8 |
| 20260504141218 | 67 | 245 | 0.0 | 0.0 | 0.00 | 0.00 | 0.00 | 45 | 1019.4 |
| 20260504140714 | 65 | 243 | 0.0 | 0.9 | 0.00 | 0.00 | 0.00 | 52 | 1019.5 |
| 20260504140209 | 66 | 240 | 0.0 | 0.0 | 0.00 | 0.00 | 0.00 | 51 | 1019.4 |
| 20260504130638 | 56 | 247 | 0.0 | 0.0 | 0.00 | 0.00 | 0.00 | 72 | 1019.2 |
| 20260504130135 | 56 | 248 | 0.0 | 0.0 | 0.00 | 0.00 | 0.00 | 73 | 1019.5 |
| 20260504110526 | 41 | 222 | 0.9 | 0.9 | 0.00 | 0.00 | 0.00 | 97 | 1018.6 |
| 20260504100442 | 42 | 244 | 0.0 | 0.0 | 0.00 | 0.00 | 0.00 | 95 | 1018.8 |
| 20260504081841 | 44 | 246 | 0.0 | 0.0 | 0.00 | 0.00 | 0.00 | 93 | 1018.8 |
| 20260504081338 | 45 | 246 | 0.0 | 0.0 | 0.00 | 0.00 | 0.00 | 91 | 1018.5 |
| 20260504080833 | 45 | 249 | 0.0 | 0.0 | 0.00 | 0.00 | 0.00 | 90 | 1018.6 |
| 20260504080331 | 45 | 250 | 0.0 | 0.0 | 0.00 | 0.00 | 0.00 | 90 | 1018.6 |
| 20260504070258 | 47 | 250 | 0.0 | 0.0 | 0.00 | 0.00 | 0.00 | 86 | 1018.6 |
| 20260504060219 | 50 | 261 | 0.0 | 0.0 | 0.00 | 0.00 | 0.00 | 80 | 1018.8 |
| 20260504050646 | 53 | 239 | 0.0 | 0.0 | 0.00 | 0.00 | 0.00 | 74 | 1019.0 |
| 20260504050143 | 53 | 234 | 0.0 | 0.0 | 0.00 | 0.00 | 0.00 | 72 | 1018.8 |
| 20260504045640 | 53 | 231 | 0.0 | 0.0 | 0.00 | 0.00 | 0.00 | 72 | 1018.9 |
| 20260504045135 | 53 | 236 | 0.0 | 0.0 | 0.00 | 0.00 | 0.00 | 72 | 1018.9 |
| 20260504044633 | 53 | 247 | 0.9 | 0.9 | 0.00 | 0.00 | 0.00 | 71 | 1018.9 |
| 20260504044129 | 53 | 246 | 0.9 | 0.9 | 0.00 | 0.00 | 0.00 | 71 | 1018.9 |
| 20260504043627 | 53 | 248 | 0.0 | 0.9 | 0.00 | 0.00 | 0.00 | 71 | 1018.8 |
| 20260504043124 | 54 | 229 | 0.0 | 0.9 | 0.00 | 0.00 | 0.00 | 70 | 1018.7 |
| 20260504042621 | 54 | 231 | 0.0 | 0.9 | 0.00 | 0.00 | 0.00 | 70 | 1018.8 |
| 20260504042118 | 54 | 223 | 0.9 | 0.9 | 0.00 | 0.00 | 0.00 | 69 | 1018.6 |
| 20260504041613 | 55 | 218 | 0.9 | 0.9 | 0.00 | 0.00 | 0.00 | 68 | 1018.5 |
| 20260504041110 | 55 | 219 | 0.9 | 0.9 | 0.00 | 0.00 | 0.00 | 68 | 1018.7 |
| 20260504040607 | 55 | 222 | 0.9 | 0.9 | 0.00 | 0.00 | 0.00 | 67 | 1018.7 |
| 20260504040104 | 55 | 218 | 0.9 | 0.9 | 0.00 | 0.00 | 0.00 | 67 | 1019.0 |
| 20260504035601 | 55 | 224 | 0.9 | 0.9 | 0.00 | 0.00 | 0.00 | 67 | 1019.0 |
| 20260504035057 | 55 | 226 | 0.9 | 0.9 | 0.00 | 0.00 | 0.00 | 67 | 1018.9 |
| 20260504034555 | 55 | 221 | 0.9 | 0.9 | 0.00 | 0.00 | 0.00 | 66 | 1018.8 |
| 20260504034051 | 55 | 224 | 0.0 | 0.9 | 0.00 | 0.00 | 0.00 | 67 | 1018.5 |
| 20260504033549 | 55 | 220 | 0.0 | 0.0 | 0.00 | 0.00 | 0.00 | 66 | 1018.7 |
| 20260504033047 | 55 | 228 | 0.0 | 0.0 | 0.00 | 0.00 | 0.00 | 66 | 1018.9 |
| 20260504032543 | 55 | 229 | 0.0 | 0.0 | 0.00 | 0.00 | 0.00 | 66 | 1019.0 |
| 20260504032040 | 55 | 229 | 0.0 | 0.0 | 0.00 | 0.00 | 0.00 | 66 | 1019.0 |
| 20260504031537 | 55 | 229 | 0.0 | 0.9 | 0.00 | 0.00 | 0.00 | 66 | 1018.9 |
| 20260504031033 | 55 | 231 | 0.0 | 0.9 | 0.00 | 0.00 | 0.00 | 65 | 1019.0 |
| 20260504030531 | 55 | 230 | 0.0 | 0.0 | 0.00 | 0.00 | 0.00 | 65 | 1019.1 |
| 20260504030027 | 55 | 232 | 0.0 | 0.0 | 0.00 | 0.00 | 0.00 | 65 | 1019.1 |
| 20260504025524 | 55 | 230 | 0.9 | 0.9 | 0.00 | 0.00 | 0.00 | 64 | 1018.9 |
| 20260504025021 | 55 | 212 | 0.0 | 0.9 | 0.00 | 0.00 | 0.00 | 64 | 1018.8 |
| 20260504024518 | 56 | 224 | 0.9 | 0.9 | 0.00 | 0.00 | 0.00 | 64 | 1018.9 |
| 20260504024015 | 56 | 230 | 0.0 | 0.0 | 0.00 | 0.00 | 0.00 | 63 | 1019.0 |
| 20260504023511 | 56 | 232 | 0.0 | 0.0 | 0.00 | 0.00 | 0.00 | 62 | 1018.9 |
| 20260504023007 | 56 | 230 | 0.9 | 1.7 | 0.00 | 0.00 | 0.00 | 62 | 1018.8 |
| 20260504022503 | 56 | 223 | 0.9 | 0.9 | 0.00 | 0.00 | 0.00 | 62 | 1018.7 |
| 20260504022000 | 55 | 232 | 0.0 | 0.0 | 0.00 | 0.00 | 0.00 | 63 | 1018.8 |
| 20260504021457 | 56 | 233 | 0.0 | 0.0 | 0.00 | 0.00 | 0.00 | 62 | 1018.7 |
| 20260504020954 | 56 | 234 | 0.0 | 0.0 | 0.00 | 0.00 | 0.00 | 61 | 1018.5 |
| 20260504020451 | 56 | 232 | 0.0 | 0.0 | 0.00 | 0.00 | 0.00 | 61 | 1018.5 |
| 20260504015948 | 57 | 235 | 0.0 | 0.0 | 0.00 | 0.00 | 0.00 | 60 | 1018.3 |
| 20260504015444 | 57 | 228 | 0.0 | 0.0 | 0.00 | 0.00 | 0.00 | 60 | 1018.5 |
| 20260504014940 | 57 | 240 | 0.0 | 0.0 | 0.00 | 0.00 | 0.00 | 60 | 1018.4 |
| 20260504014436 | 56 | 236 | 0.0 | 0.0 | 0.00 | 0.00 | 0.00 | 59 | 1017.9 |
| 20260504013933 | 55 | 231 | 0.0 | 0.0 | 0.00 | 0.00 | 0.00 | 60 | 1018.2 |
| 20260504013432 | 55 | 235 | 0.0 | 0.0 | 0.00 | 0.00 | 0.00 | 63 | 1018.1 |
| 20260504012927 | 56 | 248 | 0.0 | 0.0 | 0.00 | 0.00 | 0.00 | 64 | 1017.8 |
| 20260504012425 | 56 | 225 | 0.0 | 0.0 | 0.00 | 0.00 | 0.00 | 59 | 1017.8 |
| 20260504011922 | 57 | 234 | 0.0 | 0.0 | 0.00 | 0.00 | 0.00 | 60 | 1017.9 |
| 20260504011419 | 57 | 230 | 0.0 | 0.0 | 0.00 | 0.00 | 0.00 | 58 | 1018.1 |
| 20260504010915 | 58 | 230 | 0.0 | 0.0 | 0.00 | 0.00 | 0.00 | 56 | 1017.8 |
| 20260504010411 | 59 | 231 | 0.0 | 0.9 | 0.00 | 0.00 | 0.00 | 55 | 1017.7 |
| 20260504005907 | 59 | 237 | 0.0 | 0.0 | 0.00 | 0.00 | 0.00 | 54 | 1017.6 |
| 20260504005404 | 59 | 237 | 0.0 | 0.9 | 0.00 | 0.00 | 0.00 | 53 | 1017.6 |
| 20260504004902 | 59 | 226 | 0.9 | 0.9 | 0.00 | 0.00 | 0.00 | 53 | 1017.4 |
| 20260504004400 | 59 | 251 | 0.9 | 0.9 | 0.00 | 0.00 | 0.00 | 53 | 1017.3 |
| 20260504003855 | 59 | 232 | 0.0 | 0.0 | 0.00 | 0.00 | 0.00 | 52 | 1017.4 |
| 20260504003352 | 59 | 236 | 0.0 | 0.9 | 0.00 | 0.00 | 0.00 | 52 | 1017.6 |
| 20260504002849 | 59 | 234 | 0.0 | 0.0 | 0.00 | 0.00 | 0.00 | 51 | 1017.4 |
| 20260504002346 | 60 | 239 | 0.0 | 0.0 | 0.00 | 0.00 | 0.00 | 52 | 1017.5 |
| 20260504001843 | 61 | 228 | 0.0 | 0.9 | 0.00 | 0.00 | 0.00 | 49 | 1017.5 |
| 20260504001341 | 61 | 226 | 0.0 | 0.9 | 0.00 | 0.00 | 0.00 | 47 | 1017.5 |
| 20260504000837 | 62 | 229 | 0.0 | 0.9 | 0.00 | 0.00 | 0.00 | 45 | 1017.5 |
| 20260504000334 | 62 | 220 | 0.9 | 0.9 | 0.00 | 0.00 | 0.00 | 44 | 1017.5 |
| 20260503235832 | 62 | 226 | 0.0 | 0.0 | 0.00 | 0.00 | 0.00 | 44 | 1017.3 |
| 20260503235329 | 63 | 232 | 0.0 | 0.9 | 0.00 | 0.00 | 0.00 | 43 | 1017.3 |
| 20260503234827 | 63 | 226 | 0.0 | 0.9 | 0.00 | 0.00 | 0.00 | 43 | 1017.1 |
| 20260503234324 | 63 | 223 | 0.0 | 0.9 | 0.00 | 0.00 | 0.00 | 42 | 1017.2 |
| 20260503233822 | 64 | 226 | 0.9 | 0.9 | 0.00 | 0.00 | 0.00 | 41 | 1017.2 |
| 20260503233318 | 64 | 224 | 0.9 | 1.7 | 0.00 | 0.00 | 0.00 | 40 | 1017.1 |
| 20260503232814 | 64 | 202 | 2.6 | 4.3 | 0.00 | 0.00 | 0.00 | 39 | 1017.3 |
| 20260503232312 | 64 | 225 | 0.9 | 0.9 | 0.00 | 0.00 | 0.00 | 40 | 1017.3 |
| 20260503231810 | 65 | 221 | 0.9 | 0.9 | 0.00 | 0.00 | 0.00 | 38 | 1017.1 |
| 20260503231307 | 65 | 231 | 0.9 | 0.9 | 0.00 | 0.00 | 0.00 | 40 | 1017.2 |
| 20260503230802 | 65 | 228 | 0.9 | 0.9 | 0.00 | 0.00 | 0.00 | 38 | 1017.4 |
| 20260503230300 | 65 | 202 | 0.9 | 1.7 | 0.00 | 0.00 | 0.00 | 38 | 1017.1 |
| 20260503225757 | 65 | 191 | 1.7 | 4.3 | 0.00 | 0.00 | 0.00 | 38 | 1017.4 |
| 20260503225252 | 65 | 241 | 0.9 | 0.9 | 0.00 | 0.00 | 0.00 | 39 | 1017.4 |
| 20260503224749 | 65 | 199 | 0.9 | 0.9 | 0.00 | 0.00 | 0.00 | 39 | 1017.1 |
| 20260503224247 | 66 | 215 | 0.9 | 0.9 | 0.00 | 0.00 | 0.00 | 40 | 1017.2 |
| 20260503223744 | 66 | 219 | 0.9 | 0.9 | 0.00 | 0.00 | 0.00 | 39 | 1017.2 |
| 20260503223242 | 66 | 190 | 0.9 | 0.9 | 0.00 | 0.00 | 0.00 | 38 | 1017.3 |
| 20260503222738 | 66 | 200 | 0.9 | 0.9 | 0.00 | 0.00 | 0.00 | 38 | 1017.2 |
| 20260503222236 | 66 | 207 | 1.7 | 1.7 | 0.00 | 0.00 | 0.00 | 36 | 1017.5 |
| 20260503221734 | 66 | 238 | 0.0 | 0.0 | 0.00 | 0.00 | 0.00 | 40 | 1017.2 |
| 20260503221232 | 66 | 202 | 1.7 | 1.7 | 0.00 | 0.00 | 0.00 | 41 | 1017.3 |
| 20260503220728 | 66 | 231 | 0.0 | 0.0 | 0.00 | 0.00 | 0.00 | 40 | 1017.3 |
| 20260503220225 | 66 | 206 | 0.9 | 1.7 | 0.00 | 0.00 | 0.00 | 40 | 1017.5 |
| 20260503215721 | 66 | 232 | 0.0 | 0.9 | 0.00 | 0.00 | 0.00 | 40 | 1017.4 |
| 20260503215219 | 66 | 234 | 0.0 | 0.0 | 0.00 | 0.00 | 0.00 | 42 | 1017.4 |
| 20260503214717 | 66 | 198 | 0.9 | 0.9 | 0.00 | 0.00 | 0.00 | 42 | 1017.5 |
| 20260503214213 | 66 | 247 | 0.0 | 0.0 | 0.00 | 0.00 | 0.00 | 42 | 1017.8 |
| 20260503213711 | 66 | 220 | 0.9 | 0.9 | 0.00 | 0.00 | 0.00 | 42 | 1017.8 |
| 20260503213208 | 66 | 197 | 1.7 | 1.7 | 0.00 | 0.00 | 0.00 | 44 | 1017.7 |
| 20260503212705 | 66 | 220 | 0.9 | 0.9 | 0.00 | 0.00 | 0.00 | 43 | 1017.8 |
| 20260503212203 | 66 | 252 | 0.9 | 0.9 | 0.00 | 0.00 | 0.00 | 41 | 1018.1 |
| 20260503211700 | 66 | 240 | 0.9 | 0.9 | 0.00 | 0.00 | 0.00 | 39 | 1017.8 |
| 20260503211155 | 66 | 187 | 4.3 | 5.2 | 0.00 | 0.00 | 0.00 | 39 | 1018.2 |